[[{"header":{"parameterUnit":"m.s-1","parameterCategory":1,"la1":30.2991,"la2":30.254,"lo1":-89.0895,"lo2":-89.0444,"dy":0.0017,"dx":0.0017,"nx":28,"ny":28,"refTime":"2024-11-24T09:00:00:Z","depth":0,"parameterNumber":2,"parameterNumberName":"U-component_of_WINDS"},"data":[0,0,0,0,0,0,0,0,0,0,0,0,0,0,0,0,0,0,0,0,0,0,0,0,0,0,0,0,0,0,0,0,0,0,0,0,0,0,0,0,0,0,0,0,0,0,0,0,0,0,0,0,0,0,0,0,0,0,-2.1014,-2.1015,0,-2.1107,-2.1108,-2.1109,-2.1116,-2.1115,-2.1114,-2.1113,-2.121,-2.1213,-2.1217,0,0,0,0,0,0,0,0,0,0,0,0,0,-2.0843,-2.0847,-2.1014,-2.1015,-2.1016,-2.1107,-2.1108,-2.1109,-2.1117,-2.1115,-2.1114,-2.1113,-2.1208,-2.1213,-2.1217,0,0,0,0,0,0,0,0,0,0,0,0,0,-2.0925,-2.0848,-2.1014,-2.1031,-2.1033,-2.1106,-2.1108,-2.111,-2.1117,-2.1115,-2.1114,-2.1112,-2.1207,-2.1212,-2.1217,-2.128,0,0,-2.1233,-2.1236,0,0,0,0,0,0,0,0,-2.092,-2.0931,-2.1027,-2.103,-2.1033,-2.1098,-2.1083,-2.1167,-2.1117,-2.1085,-2.1113,-2.1112,-2.1174,-2.1182,-2.1203,-2.1285,-2.1289,-2.1234,-2.1237,-2.1239,-2.1241,0,0,0,0,0,0,0,-2.0915,-2.0927,-2.1051,-2.1028,-2.1032,-2.1034,-2.1044,-2.1099,-2.1137,-2.1088,-2.1089,-2.1099,-2.1175,-2.1198,-2.1205,-2.129,-2.1234,-2.1238,-2.1242,-2.1244,-2.1427,-2.1429,0,0,0,0,0,0,-2.0906,-2.0923,-2.1048,-2.1053,-2.0972,-2.1038,-2.1049,-2.1079,-2.1136,-2.1144,-2.1101,-2.1099,-2.1189,-2.1199,-2.1208,-2.1284,-2.1239,-2.1244,-2.1247,-2.1425,-2.1427,-2.1429,0,0,0,0,0,0,-2.0902,-2.0917,-2.1044,-2.0988,-2.1005,-2.1043,-2.1076,-2.1082,-2.1104,-2.1146,-2.1153,-2.1116,-2.1188,-2.1201,-2.1262,-2.1288,-2.1247,-2.1251,-2.1423,-2.1426,-2.1428,-2.1438,0,0,0,0,0,0,-2.0897,-2.0915,-2.094,-2.0989,-2.1008,-2.1096,-2.1078,-2.1084,-2.1113,-2.1112,-2.1163,-2.117,-2.1188,-2.1254,-2.1267,-2.1294,-2.1256,-2.1421,-2.1425,-2.1428,-2.1435,-2.144,-2.1444,0,0,0,0,0,-2.0891,-2.0939,-2.0941,-2.0956,-2.1039,-2.1097,-2.1108,-2.1128,-2.1115,-2.1139,-2.1166,-2.1168,-2.1283,-2.126,-2.1275,-2.1304,-2.142,-2.1424,-2.1427,-2.1433,-2.1439,-2.1444,0,0,0,0,0,0,-2.0893,-2.0946,-2.0948,-2.1014,-2.1051,-2.1098,-2.113,-2.1134,-2.1176,-2.1174,-2.1198,-2.1209,-2.1269,-2.1293,-2.1266,-2.1367,-2.135,-2.1357,-2.1349,-2.1355,-2.136,-2.1352,-2.126,0,0,0,0,0,-2.0901,-2.0944,-2.0988,-2.1041,-2.106,-2.1092,-2.1118,-2.113,-2.117,-2.1186,-2.1217,-2.1256,-2.13,-2.133,-2.1373,-2.1439,-2.1449,-2.1466,-2.1471,-2.1475,-2.148,-2.1515,-2.1523,-2.1442,-2.1442,-2.1442,0,0,-2.0918,-2.0952,-2.0978,-2.1043,-2.1073,-2.1117,-2.1105,-2.1152,-2.1185,-2.1193,-2.1252,-2.1276,-2.1321,-2.1384,-2.1414,-2.1406,-2.1505,-2.148,-2.1482,-2.1486,-2.152,-2.1528,-2.1534,-2.1445,-2.1444,-2.1444,0,0,-2.097,-2.1001,-2.1048,-2.1079,-2.1124,-2.1145,-2.1156,-2.1203,-2.1219,-2.1279,-2.1285,-2.1325,-2.1402,-2.1433,-2.1459,-2.1522,-2.1525,-2.1536,-2.156,-2.1594,-2.1601,-2.1606,-2.1628,-2.1635,-2.1542,-2.1542,-2.1542,0,-2.0986,-2.1052,-2.1072,-2.1119,-2.1147,-2.1156,-2.1203,-2.1232,-2.129,-2.1309,-2.1299,-2.1395,-2.1426,-2.1496,-2.1511,-2.1532,-2.1545,-2.153,-2.1598,-2.1604,-2.161,-2.163,-2.1638,-2.1543,-2.1543,-2.1542,-2.1542,0,-2.1067,-2.1113,-2.1146,-2.12,-2.1232,-2.1279,-2.1306,-2.1336,-2.1346,-2.1367,-2.1427,-2.1465,-2.1515,-2.1533,-2.1543,-2.1604,-2.1598,-2.1593,-2.1576,-2.1618,-2.1637,-2.1646,-2.1544,-2.1544,-2.1543,-2.1543,0,0,-2.1124,-2.1188,-2.12,-2.1224,-2.1275,-2.131,-2.1358,-2.1407,-2.1431,-2.1471,-2.151,-2.1575,-2.157,-2.16,-2.1613,-2.1643,-2.169,-2.1635,-2.1636,-2.1643,-2.1758,-2.176,-2.1768,-2.1692,-2.1694,-2.1695,-2.1753,0,-2.1181,-2.1264,-2.1284,-2.1356,-2.1397,-2.1406,-2.1447,-2.1483,-2.1504,-2.1543,-2.1567,-2.1612,-2.1603,-2.1621,-2.1651,-2.1678,-2.1713,-2.1674,-2.1729,-2.173,-2.1716,-2.1779,-2.1782,-2.1835,-2.1761,-2.1763,-2.1764,0,-2.1259,-2.1299,-2.1374,-2.1418,-2.1437,-2.1473,-2.1519,-2.1556,-2.1596,-2.161,-2.1642,-2.1653,-2.1702,-2.1683,-2.175,-2.1723,-2.1747,-2.1763,-2.1766,-2.1771,-2.1748,-2.1784,-2.1852,-2.186,-2.1776,-2.1775,-2.1774,0,-2.129,-2.1364,-2.1418,-2.1438,-2.1492,-2.1517,-2.154,-2.1579,-2.1607,-2.1647,-2.1665,-2.1711,-2.1736,-2.1771,-2.1793,-2.1777,-2.1858,-2.1842,-2.187,-2.187,-2.1886,-2.1884,-2.1957,-2.1903,-2.1903,-2.1903,-2.1903,0,-2.1351,-2.1397,-2.1432,-2.1465,-2.1516,-2.1539,-2.1589,-2.1612,-2.1646,-2.1684,-2.1696,-2.1731,-2.1759,-2.1798,-2.1816,-2.1868,-2.188,-2.1892,-2.1895,-2.189,-2.1888,-2.1905,-2.1901,-2.1905,-2.1905,-2.1904,-2.1904,0,-2.1395,-2.142,-2.148,-2.1525,-2.1537,-2.1573,-2.1611,-2.1644,-2.1666,-2.1713,-2.1726,-2.176,-2.1806,-2.1832,-2.1891,-2.1903,-2.1961,-2.1964,-2.1947,-2.1948,-2.1975,-2.1971,-2.206,-2.2072,-2.2011,-2.2012,-2.2013,0,-2.1431,-2.1466,-2.1515,-2.154,-2.1564,-2.1606,-2.1634,-2.1657,-2.1686,-2.1734,-2.176,-2.1807,-2.1846,-2.192,-2.195,-2.1994,-2.1998,-2.2026,-2.2004,-2.1997,-2.1996,-2.1993,-2.1996,-2.2029,-2.2029,-2.203,-2.203,0,-2.1493,-2.1504,-2.1543,-2.1588,-2.162,-2.1657,-2.1692,-2.1713,-2.1742,-2.1774,-2.1821,-2.1851,-2.191,-2.1956,-2.2003,-2.2028,-2.2033,-2.2037,-2.2045,-2.2039,-2.2027,-2.2032,-2.1955,-2.2034,-2.2034,-2.2034,-2.2033,-2.2033,-2.1533,-2.1564,-2.1602,-2.1646,-2.1675,-2.1708,-2.174,-2.1766,-2.1806,-2.1855,-2.1867,-2.1916,-2.1955,-2.2018,-2.2044,-2.2083,-2.2077,-2.209,-2.2093,-2.2096,-2.2096,-2.2022,-2.2091,-2.2091,-2.2091,-2.2091,-2.2091,0,-2.1594,-2.1619,-2.1659,-2.1708,-2.1742,-2.1745,-2.1784,-2.1813,-2.1856,-2.1891,-2.1929,-2.1983,-2.2027,-2.2061,-2.2106,-2.2131,-2.2134,-2.2142,-2.2139,-2.2145,-2.2099,-2.2086,-2.2138,-2.2138,-2.2138,-2.2138,-2.2138,-2.2138,-2.163,-2.1681,-2.1697,-2.1763,-2.1788,-2.1836,-2.1858,-2.1888,-2.1916,-2.1976,-2.2013,-2.2034,-2.2068,-2.2116,-2.2157,-2.2166,-2.2181,-2.2188,-2.2197,-2.2153,-2.2148,-2.2143,-2.2131,-2.2192,-2.2192,-2.2239,-2.224,-2.224]},{"header":{"parameterUnit":"m.s-1","parameterCategory":1,"la1":30.2991,"la2":30.254,"lo1":-89.0895,"lo2":-89.0444,"dy":0.0017,"dx":0.0017,"nx":28,"ny":28,"refTime":"2024-11-24T09:00:00:Z","depth":0,"parameterNumber":3,"parameterNumberName":"V-component_of_WINDS"},"data":[0,0,0,0,0,0,0,0,0,0,0,0,0,0,0,0,0,0,0,0,0,0,0,0,0,0,0,0,0,0,0,0,0,0,0,0,0,0,0,0,0,0,0,0,0,0,0,0,0,0,0,0,0,0,0,0,0,0,0.3327,0.3327,0,0.3378,0.3378,0.3379,0.337,0.3369,0.3369,0.3368,0.342,0.3423,0.3425,0,0,0,0,0,0,0,0,0,0,0,0,0,0.3222,0.3224,0.3327,0.3327,0.3328,0.3378,0.3378,0.3379,0.337,0.3369,0.3368,0.3367,0.342,0.3422,0.3425,0,0,0,0,0,0,0,0,0,0,0,0,0,0.327,0.3225,0.3327,0.333,0.333,0.3378,0.3378,0.3379,0.3371,0.3369,0.3368,0.3367,0.3419,0.3422,0.3425,0.3473,0,0,0.3436,0.3437,0,0,0,0,0,0,0,0,0.3267,0.3274,0.3329,0.333,0.3331,0.3366,0.3361,0.3411,0.3371,0.3355,0.3368,0.3366,0.3404,0.3408,0.3421,0.3475,0.3478,0.3436,0.3438,0.3439,0.344,0,0,0,0,0,0,0,0.3264,0.3271,0.3347,0.3329,0.3331,0.3329,0.3334,0.337,0.3386,0.3357,0.3356,0.3362,0.3404,0.3417,0.3422,0.3478,0.3436,0.3439,0.3441,0.3442,0.3575,0.3576,0,0,0,0,0,0,0.3259,0.3269,0.3345,0.3349,0.3295,0.3332,0.3337,0.3356,0.3386,0.3389,0.3363,0.3362,0.3412,0.3418,0.3424,0.3482,0.3439,0.3443,0.3444,0.3573,0.3575,0.3577,0,0,0,0,0,0,0.3257,0.3266,0.3343,0.3308,0.3318,0.3335,0.3356,0.3358,0.3372,0.3391,0.3394,0.3374,0.3412,0.3419,0.3461,0.3484,0.3444,0.3447,0.3572,0.3574,0.3576,0.3599,0,0,0,0,0,0,0.3254,0.3266,0.3284,0.3309,0.332,0.338,0.3357,0.336,0.3377,0.3376,0.3402,0.3405,0.3411,0.3456,0.3464,0.3488,0.345,0.357,0.3573,0.3575,0.3596,0.3602,0.3606,0,0,0,0,0,0.3251,0.3288,0.3285,0.3294,0.3343,0.3381,0.3388,0.3393,0.3379,0.3398,0.341,0.3404,0.3479,0.346,0.3469,0.3494,0.3568,0.3572,0.3575,0.3594,0.3601,0.3606,0,0,0,0,0,0,0.3266,0.3292,0.3288,0.3335,0.3356,0.338,0.3404,0.34,0.3426,0.3423,0.3429,0.3435,0.3478,0.349,0.3468,0.3542,0.3522,0.3527,0.3533,0.3539,0.3544,0.3541,0.3453,0,0,0,0,0,0.3275,0.3303,0.3324,0.3364,0.3374,0.3387,0.3404,0.3406,0.3428,0.3437,0.3452,0.3474,0.3502,0.3521,0.3548,0.3597,0.3603,0.3619,0.3624,0.3628,0.3633,0.366,0.3668,0.3588,0.3588,0.3588,0,0,0.3294,0.3311,0.3329,0.3367,0.3384,0.3413,0.3395,0.3427,0.3449,0.3442,0.3483,0.3495,0.3519,0.3565,0.3586,0.3576,0.3656,0.3632,0.3635,0.3638,0.3664,0.3672,0.3679,0.359,0.359,0.359,0,0,0.3344,0.3359,0.3394,0.3411,0.3436,0.3444,0.3452,0.3476,0.3484,0.3524,0.352,0.3546,0.3595,0.3613,0.3628,0.3683,0.3679,0.3692,0.3719,0.3745,0.3752,0.3757,0.3778,0.3785,0.3696,0.3696,0.3696,0,0.3364,0.3409,0.3413,0.3445,0.3463,0.3457,0.3492,0.3508,0.3541,0.3553,0.3541,0.3603,0.3618,0.3669,0.3682,0.3694,0.3704,0.369,0.375,0.3756,0.3761,0.3781,0.3789,0.3698,0.3698,0.3698,0.3697,0,0.3433,0.3464,0.3489,0.3521,0.354,0.3574,0.3584,0.3603,0.3603,0.3612,0.3654,0.3673,0.3704,0.3715,0.3716,0.3766,0.3759,0.3749,0.3729,0.377,0.3789,0.3797,0.37,0.3699,0.3699,0.3699,0,0,0.3497,0.3529,0.3538,0.3553,0.3579,0.3603,0.3636,0.3666,0.3684,0.3705,0.3734,0.3775,0.3766,0.3783,0.3785,0.3808,0.3852,0.3795,0.3796,0.3807,0.3909,0.3918,0.3927,0.3848,0.385,0.3851,0.3907,0,0.355,0.361,0.3614,0.3667,0.3696,0.369,0.3719,0.3739,0.3748,0.3774,0.3783,0.3813,0.3797,0.3808,0.383,0.3842,0.3873,0.3838,0.3876,0.3878,0.3872,0.3936,0.3946,0.3998,0.3915,0.3916,0.3917,0,0.3622,0.3646,0.3702,0.3725,0.3737,0.3763,0.3791,0.3815,0.3837,0.3842,0.3861,0.386,0.3894,0.3871,0.3919,0.3895,0.391,0.3918,0.3921,0.3926,0.3901,0.3945,0.4015,0.4024,0.3928,0.3927,0.3926,0,0.3664,0.371,0.3751,0.3763,0.3789,0.3808,0.382,0.384,0.3858,0.3882,0.3893,0.3921,0.3936,0.3958,0.3964,0.3947,0.4012,0.399,0.4018,0.4018,0.4034,0.4033,0.4109,0.404,0.404,0.404,0.404,0,0.3725,0.376,0.377,0.3795,0.3834,0.3838,0.3877,0.3887,0.3905,0.3932,0.3927,0.3953,0.3959,0.3985,0.399,0.4029,0.4036,0.4041,0.4043,0.4043,0.4042,0.4055,0.4052,0.4042,0.4042,0.4041,0.4041,0,0.378,0.3788,0.3832,0.3853,0.3859,0.3887,0.3905,0.3929,0.3936,0.397,0.3979,0.3991,0.4022,0.4029,0.4066,0.4069,0.4116,0.4113,0.4109,0.411,0.4138,0.4136,0.4226,0.4239,0.416,0.4161,0.4161,0,0.382,0.3847,0.387,0.3888,0.3901,0.3929,0.3947,0.3951,0.397,0.3996,0.4017,0.4047,0.4071,0.4121,0.4133,0.4161,0.416,0.4189,0.4164,0.4163,0.4162,0.4161,0.4164,0.4195,0.4196,0.4196,0.4197,0,0.389,0.3892,0.3918,0.3945,0.3966,0.3988,0.4009,0.4023,0.403,0.4051,0.4083,0.4102,0.4139,0.4169,0.4197,0.4209,0.4205,0.4204,0.4212,0.4214,0.4212,0.4215,0.4124,0.4203,0.4202,0.4202,0.4201,0.4201,0.394,0.3963,0.3984,0.4013,0.4028,0.4048,0.4071,0.4081,0.4107,0.4138,0.4138,0.4173,0.4193,0.423,0.4243,0.427,0.4261,0.4273,0.4276,0.428,0.4283,0.4205,0.4275,0.4275,0.4275,0.4275,0.4274,0,0.4011,0.4023,0.4049,0.4078,0.4101,0.4093,0.4115,0.4135,0.4165,0.4184,0.4208,0.4244,0.4273,0.4287,0.4316,0.4334,0.4333,0.4342,0.4342,0.4345,0.4289,0.4279,0.4343,0.4343,0.4343,0.4343,0.4343,0.4343,0.4051,0.4091,0.4095,0.4143,0.4155,0.4188,0.4202,0.4219,0.4235,0.4275,0.4299,0.4307,0.4324,0.4354,0.438,0.4383,0.4395,0.4405,0.4408,0.4356,0.4349,0.4342,0.4334,0.4407,0.4407,0.4462,0.4463,0.4463]}]]